Content
SEND FEEDBACK

Daily
Averages
Monthly
Summary
France

CAEN, FRANCE


Home > Europe > France
Elevation: 220 feet     Latitude: 49 11N     Longitude: 000 27W

WEATHER
 
SELECT A DAY
Number of Records: 222,849;   Date Range: 7/1/96 - 10/18/14
 
SHARE

PRINT THIS DATA

[ ← Previous Day ]
WEATHER ALMANAC - FEBRUARY 14, 2013
[ Next Day → ]
[ °C ]   °F
Weather ElementAverageHighLow
Temperature43.5 °F52 °F (1:00 pm)37 °F (1:00 am)
Dewpoint40.4 °F46.4 °F (11:30 am)35 °F (1:00 am)
Humidity88.5 %100 % (8:30 am)74 % (1:00 pm)
Barometer29.98 in30.12 in (1:00 am)29.92 in (8:00 am)
Wind Speed13.4 mph18.4 mph (7:00 am)
Wind Gust29.9 mph (4:30 pm)
Weather ElementAverage
Visibility6.1 mi
Wind DirectionWSW (235.5 °)

Weather ElementTotal
Precipitation---
Heating Degree Days20.5 (Base 65)
Averaged from 51 records on February 14, 2013
WEATHER CONDITIONS BREAKOUT
WIND DIRECTION BREAKOUT
WEATHER BY HOUR - FEBRUARY 14, 2013
[ °C ]   °F
Local TimeTemperatureDewpointHumidityBarometerVisibilityWind DirectionWind SpeedGust SpeedPrecipitationEventsConditions
12:30 AM37.4 °F35.6 °F93 %30.09 inSSE (160°)16.1 mphOvercast
1:00 AM37.0 °F35.0 °F89 %30.12 in3.0 miSouth (170°)15.0 mphMist
1:00 AM37.4 °F35.6 °F93 %30.09 inSouth (170°)15.0 mphOvercast
1:30 AM37.4 °F35.6 °F93 %30.09 inSouth (170°)12.7 mphOvercast
2:00 AM37.4 °F35.6 °F93 %30.06 in3.7 miSouth (180°)13.8 mphOvercast
2:30 AM37.4 °F35.6 °F93 %30.06 in3.1 miSouth (180°)13.8 mphOvercast
3:00 AM39.2 °F37.4 °F93 %30.06 in3.1 miSouth (180°)11.5 mphOvercast
3:30 AM39.2 °F37.4 °F93 %30.04 in3.7 miSouth (180°)8.1 mphOvercast
4:00 AM39.2 °F35.6 °F87 %30.01 in3.7 miSouth (170°)11.5 mphOvercast
4:30 AM39.2 °F37.4 °F93 %30.01 in3.7 miSouth (190°)13.8 mphOvercast
5:00 AM39.2 °F37.4 °F93 %30.01 inSouth (190°)17.3 mphMist
5:30 AM39.2 °F37.4 °F93 %29.98 inSouth (190°)17.3 mphOvercast
6:00 AM39.2 °F37.4 °F93 %29.98 inSouth (190°)17.3 mphOvercast
6:30 AM39.2 °F37.4 °F93 %29.95 inSouth (190°)17.3 mphOvercast
7:00 AM40.0 °F38.0 °F90 %29.96 in3.0 miSouth (190°)18.4 mphOvercast
7:00 AM39.2 °F37.4 °F93 %29.95 in3.1 miSouth (190°)18.4 mphOvercast
7:30 AM41.0 °F39.2 °F93 %29.95 in1.8 miSouth (190°)16.1 mphOvercast
8:00 AM41.0 °F39.2 °F93 %29.92 in2.8 miSouth (190°)17.3 mphRainLight Rain
8:30 AM41.0 °F41.0 °F100 %29.92 in4.3 miSouth (190°)17.3 mphRainLight Rain
9:00 AM42.8 °F41.0 °F93 %29.92 in4.3 miSSW (200°)12.7 mphRainLight Rain
9:30 AM42.8 °F41.0 °F93 %29.92 in3.1 miSouth (190°)11.5 mphLight Drizzle
10:00 AM44.6 °F42.8 °F93 %29.92 in6.2 miSSW (200°)11.5 mphOvercast
10:30 AM44.6 °F42.8 °F93 %29.92 in6.2 miSSW (210°)11.5 mphOvercast
11:00 AM46.4 °F44.6 °F93 %29.92 in6.2 miSW (220°)9.2 mphLight Drizzle
11:30 AM48.2 °F46.4 °F93 %29.92 in6.2 miSW (230°)6.9 mphOvercast
12:00 PM50.0 °F46.4 °F87 %29.92 in6.2 miWest (280°)13.8 mphOvercast
12:30 PM50.0 °F46.4 °F87 %29.92 in6.2 miWest (280°)15.0 mphMostly Cloudy
1:00 PM52.0 °F46.0 °F74 %29.95 in19.0 miWNW (290°)16.1 mphPartly Cloudy
1:00 PM51.8 °F46.4 °F82 %29.92 in6.2 miWNW (290°)16.1 mphMostly Cloudy
1:30 PM51.8 °F44.6 °F76 %29.92 in6.2 miWNW (290°)13.8 mphMostly Cloudy
2:00 PM50.0 °F44.6 °F82 %29.92 in6.2 miWNW (290°)13.8 mphRainLight Rain
2:30 PM50.0 °F44.6 °F82 %29.95 in6.2 miWest (270°)13.8 mphRainLight Rain
3:00 PM50.0 °F44.6 °F82 %29.95 in6.2 miWNW (300°)15.0 mphScattered Clouds
3:30 PM50.0 °F42.8 °F76 %29.95 in6.2 miWNW (300°)15.0 mph
4:00 PM48.2 °F41.0 °F76 %29.95 in6.2 miNW (320°)13.8 mphMostly Cloudy
4:30 PM46.4 °F42.8 °F87 %29.98 in3.7 miWNW (300°)18.4 mph29.9 mphRainLight Rain
5:00 PM46.4 °F41.0 °F81 %29.98 in6.2 miWNW (290°)10.4 mphMostly Cloudy
5:30 PM44.6 °F39.2 °F81 %29.98 in6.2 miWNW (290°)9.2 mphPartly Cloudy
6:00 PM42.8 °F39.2 °F87 %29.98 in6.2 miWest (280°)9.2 mph
6:30 PM42.8 °F39.2 °F87 %29.98 in6.2 miWest (270°)10.4 mph
7:00 PM44.0 °F40.0 °F79 %30.01 in34.0 miWest (270°)10.4 mphClear
7:00 PM44.6 °F39.2 °F81 %29.98 in6.2 miWest (270°)10.4 mph
7:30 PM44.6 °F41.0 °F87 %29.98 in6.2 miWest (260°)11.5 mphScattered Clouds
8:00 PM44.6 °F41.0 °F87 %30.01 in6.2 miWest (270°)12.7 mph
8:30 PM44.6 °F41.0 °F87 %30.01 in6.2 miWest (270°)11.5 mph
9:00 PM44.6 °F41.0 °F87 %30.01 in6.2 miWest (270°)12.7 mph
9:30 PM42.8 °F41.0 °F93 %30.01 in6.2 miWest (270°)11.5 mph
10:00 PM42.8 °F41.0 °F93 %30.01 in6.2 miWest (270°)11.5 mph
10:30 PM42.8 °F41.0 °F93 %30.01 in6.2 miWest (260°)11.5 mph
11:00 PM42.8 °F41.0 °F93 %30.04 in6.2 miWest (270°)11.5 mph
11:30 PM42.8 °F39.2 °F87 %30.04 in6.2 miWest (280°)11.5 mph
Hourly data recorded from LFRK, located miles away from Caen, France







STORIES FROM OUR PARTNERS